Location: Campillo
(40.8621°N, 4.2488°W)
Time: 12:46:15
(UTC+00:00)

Cosmos 2154 Rocket - Pass Details

Date: 25 September 2021
Orbit: 965 x 997 km, 82.9° (Epoch: 15 October)

Event Time Altitude Azimuth Distance (km) Brightness Sun altitude
Rises 19:04:22 0° 178° (S) 3,697 6.9 -11.3°
Reaches altitude 10° 19:06:53 10° 176° (S) 2,753 6.2 -11.8°
Maximum altitude 19:13:11 71° 94° (E) 1,050 4.0 -12.9°
Drops below altitude 10° 19:19:30 10° 12° (NNE) 2,770 6.4 -14.1°
Sets 19:22:02 0° 10° (N) 3,720 7.1 -14.6°
